カタログに戻る

STARLINK-4296

運用中通信VLEO
NORAD 52995·PAYLOAD·🇺🇸 United States

打ち上げ Jul 7, 2022 から Cape Canaveral Space Force Station

Loading…

次のパス (今後24時間)

TLE

最新Source: CelesTrak SupGP

元期: Sep 14, 2026, 21:07 UTC

1 52995C 22076K   26257.88034722 -.00015835  00000+0 -45296-3 0  2572
2 52995  53.1574 309.7818 0001175  86.9738 135.7666 15.35413018    14

AllMySatでSTARLINK-4296をリアルタイム追跡

Download on the App Store